This is the latest recevied weather packets stored in our database for station/object YO6KXQ-11. If no packets are shown the sender has not sent any weather packets the latest 1 day(s).
| Time | Temp. | Humidity | Pressure | Rain* | Wind** | Luminosity | Snow |
|---|---|---|---|---|---|---|---|
| 1778112489 | 20° C | 44% | 1019.8 hPa | - | - | - | - |
| 1778110689 | 20° C | 44% | 1019.7 hPa | - | - | - | - |
| 1778109789 | 20° C | 45% | 1019.7 hPa | - | - | - | - |
| 1778104388 | 20° C | 44% | 1019.3 hPa | - | - | - | - |
| 1778099887 | 20.56° C | 44% | 1019 hPa | - | - | - | - |
| 1778096286 | 20.56° C | 43% | 1018.8 hPa | - | - | - | - |
| 1778095386 | 20.56° C | 43% | 1018.8 hPa | - | - | - | - |
| 1778094486 | 20.56° C | 42% | 1018.6 hPa | - | - | - | - |
| 1778090885 | 20.56° C | 41% | 1018.2 hPa | - | - | - | - |
| 1778085484 | 20.56° C | 43% | 1017.7 hPa | - | - | - | - |
| 1778080983 | 20.56° C | 42% | 1017.8 hPa | - | - | - | - |
| 1778080083 | 20° C | 42% | 1017.9 hPa | - | - | - | - |
| 1778076482 | 20° C | 41% | 1017.6 hPa | - | - | - | - |
| 1778075582 | 20° C | 41% | 1017.6 hPa | - | - | - | - |
| 1778074682 | 20° C | 40% | 1017.7 hPa | - | - | - | - |
| 1778070181 | 19.44° C | 36% | 1017.9 hPa | - | - | - | - |
| 1778069281 | 19.44° C | 38% | 1018.1 hPa | - | - | - | - |
| 1778065680 | 18.89° C | 42% | 1018.5 hPa | - | - | - | - |
| 1778064780 | 18.89° C | 42% | 1018.6 hPa | - | - | - | - |
| 1778063880 | 18.33° C | 44% | 1018.8 hPa | - | - | - | - |
| 1778060279 | 18.33° C | 45% | 1019.4 hPa | - | - | - | - |
| 1778059379 | 18.33° C | 45% | 1019.5 hPa | - | - | - | - |
| 1778058479 | 18.33° C | 45% | 1019.5 hPa | - | - | - | - |
| 1778055778 | 17.78° C | 44% | 1019.6 hPa | - | - | - | - |
| 1778054878 | 17.78° C | 44% | 1019.5 hPa | - | - | - | - |
* Rain since midnight (hover to see other rain measurements)
** Current wind speed in m/s (hover to see current wind gust speed)